Location: Fours
(44.3167°N, 6.7000°E)
Time: 11:02:09
(UTC+00:00)

Cosmos 1943 Rocket - Pass Details

Date: 30 November 2020
Orbit: 811 x 845 km, 71.0° (Epoch: 25 January)

Event Time Altitude Azimuth Distance (km) Brightness Sun altitude
Rises 16:28:35 0° 339° (NNW) 3,356 5.3 -6.1°
Reaches altitude 10° 16:31:10 10° 347° (NNW) 2,425 4.5 -6.5°
Maximum altitude 16:36:23 40° 57° (ENE) 1,198 2.6 -7.3°
Drops below altitude 10° 16:41:36 10° 127° (SE) 2,433 4.3 -8.2°
Sets 16:44:11 0° 134° (SE) 3,368 5.1 -8.6°
